Regional Weather Roundup
Issued by NWS

Home | Current Version | Previous Version | Graphics & Text | Print | Product List | Glossary On
Versions: 1 2 3 4 5 6 7 8 9 10 11 12 13 14 15 16 17 18 19 20 21 22 23 24 25 26 27 28 29 30 31 32 33 34 35 36 37 38 39 40 41 42 43 44 45 46 47 48 49 50
292
ASUS43 KFSD 061902
RWRSD

WEATHER ROUNDUP FOR SOUTH DAKOTA
NATIONAL WEATHER SERVICE SIOUX FALLS SD
200 PM CDT FRI MAY 06 2016

NOTE: "FAIR" INDICATES FEW OR NO CLOUDS BELOW 12,000 FEET WITH NO
SIGNIFICANT WEATHER AND/OR OBSTRUCTIONS TO VISIBILITY.


SDZ001>005-009-010-012>017-062000-
NORTHWEST AND NORTH CENTRAL SOUTH DAKOTA

CITY           SKY/WX    TMP DP  RH WIND       PRES   REMARKS
BUFFALO          N/A     73  44  35 NE30      29.97S
FAITH            N/A     77  48  35 N28G38    29.93R
MOBRIDGE       SUNNY     81  39  22 N21G32    29.86R
$$

SDZ012>016-024>037-041>051-057-063-072>074-062000-
SOUTHWEST AND SOUTH CENTRAL SOUTH DAKOTA

CITY           SKY/WX    TMP DP  RH WIND       PRES   REMARKS
RAPID CTY ARPT MOSUNNY   75  49  39 N26G38    29.94S
PIERRE         MOSUNNY   82  56  40 N9        29.83F
CUSTER         CLOUDY    73  36  25 NE17      30.04S
ELLSWORTH AFB  MOSUNNY   76  49  38 N23G32    29.96R
PHILIP         PTSUNNY   80  56  43 N7        29.87S
PINE RIDGE     CLOUDY    80  48  32 SW7       29.92S
WINNER         FAIR      86  50  28 SW16      29.85F
$$

SDZ004>011-016>023-039-040-062000-
NORTHEAST SOUTH DAKOTA

CITY           SKY/WX    TMP DP  RH WIND       PRES   REMARKS
ABERDEEN       SUNNY     92  49  22 N16G25    29.78S
WATERTOWN      SUNNY     88  49  25 W8        29.80F
BROOKINGS      MOSUNNY   85  53  33 W16G23    29.81S
SISSETON         N/A     91  49  23 NW14G24   29.74F
$$

SDZ017-020-022-023-036>040-048>070-062000-
SOUTHEAST SOUTH DAKOTA

CITY           SKY/WX    TMP DP  RH WIND       PRES   REMARKS
SIOUX FALLS    PTSUNNY   82  54  37 SW15G26   29.83F
HURON          SUNNY     87  52  29 W8        29.81S
MITCHELL       SUNNY     87  54  32 W15G25    29.82F
YANKTON        SUNNY     84  52  32 SW12G21   29.85F
$$

ABBREVIATIONS USED IN REMARKS
   TC - TEMPERATURE IN CELSIUS
  WCI - WIND CHILL INDEX
   HX - HEAT INDEX
  VSB - VISIBILITY





USA.gov is the U.S. government's official web portal to all federal, state and local government web resources and services.